Regional Weather Roundup
Issued by NWS Cleveland, OH

Home | Current Version | Previous Version | Graphics & Text | Print | Product List | Glossary On
Versions: 1 2 3 4 5 6 7 8 9 10 11 12 13 14 15 16 17 18 19 20 21 22 23 24 25 26 27 28 29 30 31 32 33 34 35 36 37 38 39 40 41 42 43 44 45 46 47 48 49 50
000
ASUS41 KCLE 010210
RWRCLE
OHIO REGIONAL WEATHER ROUNDUP
NATIONAL WEATHER SERVICE WILMINGTON, OH
1000 PM EDT FRI JUL 31 2015

NOTE: "FAIR" INDICATES FEW OR NO CLOUDS BELOW 12,000 FEET WITH NO
SIGNIFICANT WEATHER AND/OR OBSTRUCTIONS TO VISIBILITY.

OHZ001>008-015>018-024>027-034-035-043-044-010300-
   NORTHWEST OHIO

CITY           SKY/WX    TMP DP  RH WIND       PRES   REMARKS
DEFIANCE       PTCLDY    73  55  53 NW7       29.93R
FINDLAY        CLEAR     71  63  75 SW6       29.90R
TOLEDO EXPRESS CLEAR     74  55  51 W8        29.89R
TOLEDO EXEC    CLEAR     76  55  48 NW10      29.89R
LIMA           CLEAR     71  65  81 SW3       29.93R
$$

OHZ009>014-019>023-028>033-038-089-010300-
   NORTHEAST OHIO

CITY           SKY/WX    TMP DP  RH WIND       PRES   REMARKS
CLE-HOPKINS    PTCLDY    74  59  59 SW9       29.89R
CLE-LAKEFRONT  CLEAR     79  62  56 W14       29.85R
CUY CO. ARPT   PTCLDY    81  61  50 W14       29.87R
LORAIN-ELYRIA  CLEAR     70  61  73 W6        29.89R
ASHTABULA      PTCLDY    72  58  61 SW3       29.85S
AKRON-CANTON   MOCLDY    75  59  57 W5        29.90R
WOOSTER        CLEAR     69  60  73 W6        29.92R
MANSFIELD      PTCLDY    73  60  63 SW8       29.93R
YOUNGSTOWN     MOCLDY    77  57  50 SW8       29.87S
$$

OHZ042-051>053-060>062-070>072-077>081-010300-
  SOUTHWEST OHIO

CITY           SKY/WX    TMP DP  RH WIND       PRES   REMARKS
CINC-COVINGTON PTCLDY    76  60  57 SW6       29.97S
CINC-LUNKEN    PTCLDY    70  63  78 S7        29.96R
HAMILTON       CLEAR     73  61  65 VRB3      29.95S
DAYTON         MOCLDY    74  64  71 SW8       29.96R
WRIGHT-PAT AFB MOCLDY    74  66  74 SW3       29.94S
DAYTON GENERAL MOCLDY    79  58  48 W5        29.94S
WILMINGTON     LGT RAIN  75  61  61 SW3       29.96R
$$

OHZ036-037-039>041-045>050-054>059-063>069-073>076-082>088-010300-
  CENTRAL AND SOUTHEAST OHIO

CITY           SKY/WX    TMP DP  RH WIND       PRES   REMARKS
COLUMBUS       CLOUDY    78  59  51 W10       29.93R
OSU AIRPORT    CLOUDY    75  62  64 SW9       29.94R
BOLTON FIELD   MOCLDY    74  64  70 CALM      29.94S
RICKENBACK AFB CLOUDY    76  63  62 W6        29.93R
NEWARK         CLOUDY    74  63  68 W3        29.92S
MARION         PTCLDY    73  60  63 W6        29.93R
LANCASTER      CLOUDY    77  61  57 SW6       29.94R
ZANESVILLE     CLOUDY    77  59  53 SW3       29.93R
NEW PHILLY     CLOUDY    75  61  61 W3        29.92R
$$



USA.gov is the U.S. government's official web portal to all federal, state and local government web resources and services.